Location: Jonesport
(44.5330°N, 67.5990°W)
Time: 17:56:48
(UTC-05:00)

Iridium 35 - Visible Passes

Search period start: 26 February 2015 00:00
Search period end: 08 March 2015 00:00
Orbit: 776 x 779 km, 86.4° (Epoch: 25 February)

Date Brightness Start Highest point End Pass type
(mag) Time Alt. Az. Time Alt. Az. Time Alt. Az.
02 Mar 7.7 20:48:05 10° N 20:48:20 11° N 20:48:20 11° N visible
03 Mar 7.5 20:14:48 10° NNE 20:15:10 12° NNE 20:15:10 12° NNE visible
04 Mar 7.4 19:41:53 10° NNE 19:42:01 10° NNE 19:42:01 10° NNE visible
04 Mar 7.7 21:21:51 10° NNW 21:22:30 14° NNW 21:22:30 14° NNW visible
05 Mar 7.3 20:48:10 10° N 20:49:23 17° N 20:49:23 17° N visible
06 Mar 7.0 20:14:44 10° N 20:16:16 19° NNE 20:16:16 19° NNE visible
06 Mar 8.0 21:56:25 10° NNW 21:56:46 11° NW 21:56:46 11° NW visible
07 Mar 6.8 19:41:34 10° NNE 19:43:11 18° NNE 19:43:11 18° NNE visible
07 Mar 7.5 21:22:10 10° NNW 21:23:41 18° NNW 21:23:41 18° NNW visible
